Wind_Speed
3 4 4 5 5 6 6 7 8 9 10 10 10 10 10 10 10 10 10 10 10 10 10 9 7 8 9 9 10 11 11 10 11 12 12 13 14 15 17 18 18 18
4 4 5 5 6 6 6 7 8 9 10 10 10 10 10 10 10 10 10 11 11 10 10 9 8 8 9 10 11 11 11 11 11 12 12 14 14 14 16 17 18 18
5 5 5 6 6 6 7 8 8 9 10 9 10 9 10 10 10 10 10 10 11 11 10 10 10 10 10 11 11 10 10 11 12 13 14 14 13 13 17 19 19 18
6 6 6 6 7 7 7 8 8 9 9 9 9 9 9 9 10 10 10 10 11 11 10 10 10 10 10 10 10 10 11 11 11 12 13 13 12 13 15 16 17 17
6 6 6 6 7 7 7 8 8 9 9 9 9 9 9 9 10 10 11 11 11 11 10 10 10 10 11 11 10 11 11 11 11 11 11 12 12 13 14 14 16 17
6 6 7 7 7 7 8 8 8 9 9 9 9 9 10 10 11 11 11 11 11 11 11 10 10 10 11 10 10 10 10 11 12 12 11 12 13 14 15 16 17 18
7 7 7 7 7 7 8 8 9 10 10 10 10 10 11 11 11 11 12 12 12 11 12 11 10 11 10 10 9 9 9 10 12 12 12 13 14 15 16 17 17 18
7 8 7 7 7 7 8 9 10 11 11 10 11 11 11 11 12 12 12 12 12 12 12 11 11 11 10 10 10 10 10 10 11 12 13 14 15 16 17 17 17 19
8 8 8 8 8 8 9 10 10 11 11 10 11 11 11 11 12 12 13 13 13 13 12 11 11 11 10 10 11 11 11 11 11 12 13 15 16 16 16 16 18 19
8 8 8 8 9 9 9 10 11 12 11 10 11 12 12 12 12 12 12 13 14 14 13 12 11 12 11 12 12 12 12 12 12 12 13 14 15 15 15 16 18 18
8 8 8 9 9 9 10 11 11 11 11 11 12 13 13 13 13 12 11 13 15 14 13 13 13 13 13 13 13 12 13 14 13 13 14 14 14 14 15 16 16 16
8 8 8 8 9 9 9 10 11 11 12 13 13 13 14 14 14 13 12 13 15 13 13 15 15 14 13 13 13 13 14 14 14 14 15 15 14 14 15 16 15 15
7 7 8 8 8 9 9 10 11 12 12 13 13 13 15 15 15 14 13 14 15 13 13 14 15 14 13 12 13 13 14 14 14 14 15 16 15 15 15 15 15 15
7 7 8 8 8 9 9 10 11 12 12 13 13 13 15 15 16 16 15 14 15 14 14 14 14 13 11 11 11 12 13 14 15 15 16 17 16 15 15 15 15 15
7 7 8 8 9 9 9 10 11 12 13 13 13 14 15 16 16 16 15 15 15 15 14 13 13 11 10 11 12 13 14 15 16 16 16 17 17 16 16 15 15 15
8 8 8 9 9 9 9 10 11 12 13 13 13 14 15 15 15 15 15 15 15 15 14 12 12 11 11 13 14 15 16 16 16 16 16 16 17 17 16 15 15 15
9 9 10 10 10 10 10 10 11 12 12 12 13 14 14 14 14 14 15 15 14 14 13 12 12 13 12 12 14 16 17 16 15 16 16 16 17 17 16 16 16 17
10 10 11 10 10 10 10 10 11 11 12 12 13 13 13 13 13 14 14 15 14 13 13 13 14 14 14 13 15 16 17 16 16 16 16 16 17 17 16 16 17 18
12 11 11 11 11 11 10 10 11 11 12 12 12 13 13 13 13 14 14 14 14 13 14 14 14 14 14 14 15 16 16 17 16 16 16 17 18 18 17 16 16 18
13 13 12 12 12 11 11 11 11 11 11 11 12 13 12 12 13 13 13 13 13 13 14 14 14 14 13 13 15 16 17 17 17 16 16 18 19 21 20 18 16 17
13 13 13 12 12 12 12 12 12 11 11 11 12 12 12 13 13 13 13 13 12 13 13 14 14 13 12 13 15 16 16 17 17 17 17 18 20 22 21 18 16 17
14 13 13 12 12 12 12 12 12 11 11 11 11 12 12 12 13 13 13 12 12 13 13 15 14 13 13 13 14 15 16 16 16 15 16 18 20 20 19 17 17 17
15 13 13 13 12 13 13 12 12 11 11 11 11 12 12 12 13 13 12 12 13 13 13 15 15 14 14 13 13 14 15 14 13 14 17 21 21 19 17 16 16 18
15 13 13 13 13 13 13 13 12 12 11 11 11 11 12 12 12 12 12 12 13 13 14 15 16 17 16 12 10 13 15 13 12 14 18 21 21 20 18 17 17 20
14 14 13 13 13 14 14 13 13 12 12 12 12 11 12 12 11 11 12 12 12 14 16 15 15 16 13 10 9 12 15 13 11 12 15 18 19 20 19 18 18 19
14 14 14 14 14 14 14 14 13 13 13 12 12 12 12 11 10 11 13 13 12 13 14 15 16 13 9 8 12 15 16 15 12 11 13 16 17 18 19 19 18 18
Wind_Direction
263 274 281 287 290 293 295 298 299 299 300 300 301 303 305 306 308 311 314 315 315 312 310 304 296 293 297 305 306 301 299 295 294 297 295 294 294 290 292 294 291 287
260 266 271 278 280 282 287 293 297 297 296 298 298 298 297 300 304 308 313 314 312 310 309 306 304 303 304 308 309 306 306 302 296 299 300 299 301 298 297 299 299 297
251 259 266 272 278 284 288 291 293 293 294 298 298 296 295 296 300 306 310 311 309 307 307 307 308 308 308 307 307 307 307 304 300 304 306 304 304 304 302 302 303 300
244 251 259 266 274 279 282 285 288 291 296 300 300 298 295 297 300 304 308 308 307 305 304 307 309 310 310 307 306 307 307 304 304 309 310 306 307 308 307 306 305 302
240 245 252 259 266 272 275 277 282 288 295 301 303 301 298 300 301 303 306 306 305 303 303 305 307 309 310 310 305 303 306 309 310 311 308 306 309 312 314 314 309 306
240 243 245 252 258 265 269 274 281 289 294 297 301 302 301 301 301 302 305 304 303 303 302 302 302 305 309 309 302 298 301 308 311 309 305 304 307 309 315 318 314 309
239 241 241 250 256 262 269 274 279 282 284 289 294 298 299 299 301 302 302 301 303 302 302 302 299 301 307 306 300 297 297 302 306 306 305 305 306 307 313 318 316 312
238 241 241 248 255 263 268 270 273 277 279 282 284 290 296 299 301 301 299 298 299 298 299 300 296 296 300 301 299 295 294 299 304 304 305 305 304 308 313 317 317 315
236 238 241 246 255 261 265 269 276 279 278 277 282 289 294 295 296 296 295 294 293 294 294 293 291 289 289 292 294 290 287 294 299 300 302 302 302 306 310 315 317 317
233 236 241 248 257 263 265 270 279 285 290 293 294 292 290 290 290 290 293 293 290 288 289 287 285 285 286 288 287 283 282 288 295 300 300 299 301 304 308 313 314 316
231 237 243 250 259 267 272 277 286 295 300 295 288 287 291 294 293 291 295 296 291 288 288 288 285 284 286 286 284 283 283 286 293 299 298 297 299 301 306 311 313 316
233 240 247 255 261 267 273 280 288 291 290 291 293 297 299 298 295 296 297 297 293 289 286 286 285 284 283 283 285 285 284 284 289 294 294 295 299 300 303 309 311 315
237 241 249 257 262 267 272 277 284 289 293 298 301 299 296 294 296 297 296 296 295 291 286 284 284 283 281 281 283 279 278 282 287 292 293 295 298 297 299 307 311 313
239 243 247 255 259 263 270 276 283 289 291 292 291 291 293 295 296 297 297 298 297 294 292 287 282 280 280 283 281 275 277 284 287 290 292 295 297 296 296 304 310 312
232 240 242 249 255 257 265 274 279 284 286 287 288 291 295 296 296 297 297 295 293 293 292 286 279 277 279 282 282 281 285 288 288 290 292 294 295 295 295 300 308 312
224 231 237 244 250 255 263 271 278 285 286 286 290 293 296 298 297 295 293 291 291 292 290 285 280 280 282 284 287 289 289 287 288 290 291 292 292 292 294 297 306 311
219 225 233 240 246 252 259 268 278 283 283 285 291 294 295 296 295 294 293 292 292 291 290 287 285 287 292 298 300 297 289 283 283 288 290 290 290 291 292 295 304 309
217 223 230 237 243 249 255 266 276 279 281 285 289 293 295 295 295 294 293 292 292 291 291 289 286 287 292 298 301 299 292 283 279 282 287 289 291 291 291 295 304 308
216 223 229 236 240 245 253 262 270 274 277 282 288 293 294 293 294 293 293 293 293 293 292 289 287 287 287 290 297 301 297 287 276 275 284 292 295 295 293 295 301 306
215 222 229 235 237 243 251 256 263 269 273 280 288 290 290 292 295 295 295 295 294 293 291 289 289 289 287 290 299 304 301 289 277 273 281 289 293 292 289 290 295 299
216 221 228 235 239 243 249 253 256 262 267 275 283 287 290 294 294 293 293 293 295 296 296 296 295 294 295 297 301 305 304 292 279 275 278 285 290 288 284 285 292 296
217 222 227 235 241 244 248 250 252 258 264 269 275 282 286 290 292 292 291 293 295 297 300 299 296 296 300 304 304 305 304 293 282 278 283 289 292 292 289 288 291 294
217 220 228 235 240 243 246 248 249 254 258 261 269 278 283 289 293 291 290 292 294 297 302 302 300 301 301 300 303 306 304 295 284 285 294 297 298 301 300 294 291 294
218 220 228 235 239 242 245 247 248 251 255 259 267 275 281 286 289 288 289 293 297 305 311 310 310 312 306 297 298 305 305 300 289 289 295 300 305 309 308 302 298 301
221 222 229 237 240 242 245 247 247 248 253 257 260 267 274 278 283 289 293 298 305 311 310 306 307 310 305 299 306 308 305 302 294 289 294 301 308 312 310 307 306 304
225 226 229 236 242 243 244 245 245 247 251 254 258 267 275 281 286 291 293 297 301 301 300 300 300 294 283 296 315 313 307 302 296 291 297 304 309 310 309 309 309 308
Height
823 823 823 823 823 823 823 822 822 821 821 820 819 818 817 817 816 815 814 813 812 811 810 810 809 808 807 806 805 804 803 802 801 800 799 798 797 796 795 795 794 794
822 822 823 822 822 822 822 822 821 820 820 819 818 817 817 816 815 814 813 812 811 810 809 809 808 807 806 805 804 803 802 801 800 799 798 797 796 795 794 793 793 792
821 821 821 822 821 821 821 821 820 820 819 818 817 817 816 815 814 813 812 811 810 809 808 808 807 806 805 804 803 802 801 801 799 798 797 796 795 794 793 791 791 790
820 820 820 821 820 820 820 820 819 819 818 817 816 816 815 814 813 812 811 811 810 808 807 807 806 805 804 803 803 802 800 799 798 798 797 795 795 794 792 791 789 789
818 819 819 819 819 819 819 819 819 818 817 816 816 815 814 813 812 811 810 809 808 808 807 806 805 804 804 803 802 801 799 798 797 796 796 794 794 793 792 791 789 788
817 817 818 818 818 818 818 818 818 817 816 816 815 814 813 812 812 810 809 808 807 807 806 805 804 803 802 801 800 799 798 797 796 795 795 793 792 791 790 790 788 786
816 816 816 817 817 817 817 816 817 816 815 815 814 813 812 811 811 809 809 808 806 805 804 803 803 801 801 800 799 798 797 796 795 794 793 792 791 790 789 788 787 785
814 814 815 815 815 816 815 815 815 814 813 813 812 812 811 810 810 808 808 806 805 804 803 802 801 800 800 799 798 797 796 795 794 793 792 791 790 789 787 787 785 783
813 813 813 814 814 814 814 813 813 811 811 811 810 810 810 809 808 807 806 805 804 803 801 801 800 798 798 798 797 796 795 794 793 792 791 790 788 788 786 785 784 782
811 812 812 812 812 812 812 811 811 809 809 809 809 809 808 807 806 805 804 804 802 801 800 799 798 797 797 796 795 795 793 792 791 790 789 788 787 786 785 784 782 781
810 810 810 811 810 811 810 809 809 808 808 808 807 806 805 805 804 803 803 802 801 800 799 798 797 796 795 794 794 793 792 790 790 789 788 786 785 785 784 782 781 779
808 808 809 809 809 809 809 809 808 808 807 806 805 804 804 803 802 801 801 801 800 798 797 796 795 794 793 792 792 791 790 789 788 787 786 784 784 783 782 780 779 778
806 807 807 807 808 808 808 808 808 807 806 805 804 804 803 802 801 800 799 799 798 797 796 795 793 792 791 791 791 790 789 788 787 786 784 783 782 781 780 778 777 776
805 805 806 806 807 807 807 807 806 806 805 805 804 803 802 801 799 798 798 797 796 795 794 793 792 790 790 789 789 788 787 786 785 784 782 781 780 778 777 776 775 774
803 804 804 805 805 805 806 806 805 805 804 803 802 801 800 799 798 797 797 796 794 793 792 791 789 788 788 788 788 787 786 785 783 782 780 779 777 776 774 774 772 771
802 803 803 803 804 804 804 804 804 803 802 801 801 800 799 798 797 796 795 794 792 791 790 789 787 787 786 786 786 785 784 783 781 780 779 777 775 773 772 771 770 769
800 801 801 802 802 802 802 802 802 801 800 800 799 798 797 796 796 795 793 792 791 789 788 787 786 785 784 784 784 783 782 781 779 778 776 775 773 771 770 769 767 766
798 799 799 800 800 800 800 800 800 799 799 798 797 796 795 794 794 793 792 790 789 788 787 785 784 783 782 782 781 780 779 778 777 776 774 773 771 769 768 766 765 764
796 796 797 797 797 798 798 798 798 797 797 796 795 794 793 792 792 791 789 788 787 786 785 783 782 781 780 779 779 778 777 776 775 774 773 771 770 768 766 764 762 761
793 793 794 795 795 796 796 796 796 795 795 794 793 792 791 790 790 788 787 786 785 783 782 781 779 778 777 777 777 776 775 774 773 772 771 770 768 766 764 762 760 759
790 791 792 792 793 793 793 793 794 793 793 792 791 790 789 788 788 786 785 784 782 781 780 778 777 776 776 775 775 774 773 772 771 770 769 767 765 764 763 760 758 757
787 788 789 790 791 791 791 791 791 790 790 790 789 789 788 787 786 784 782 781 780 779 778 778 776 775 774 774 773 772 771 770 769 769 767 766 763 761 760 758 756 755
784 785 786 787 788 788 788 788 788 788 788 788 787 786 785 785 783 782 781 779 778 778 777 777 776 774 773 773 772 771 770 769 769 767 766 765 762 759 758 756 754 753
781 782 784 784 785 785 785 785 785 785 785 785 785 784 783 782 781 779 778 777 777 776 776 775 775 774 774 772 770 770 769 768 768 766 764 763 761 758 757 755 753 751
779 780 781 781 782 782 782 782 782 782 782 782 782 781 780 779 778 777 776 776 776 776 775 774 773 773 773 772 769 768 767 766 766 765 763 762 760 757 755 753 751 750
776 778 778 779 779 779 779 780 780 780 780 779 779 778 777 777 776 775 775 774 774 774 773 772 771 771 771 770 768 767 766 764 764 764 762 761 759 756 754 751 750 748